Regional Weather Roundup
Issued by NWS

Home | Current Version | Previous Version | Text Only | Print | Product List | Glossary Off
Versions: 1 2 3 4 5 6 7 8 9 10 11 12 13 14 15 16 17 18 19 20 21 22 23 24 25 26 27 28 29 30 31 32 33 34 35 36 37 38 39 40 41 42 43 44 45 46 47 48 49 50

000
ASUS43 KMPX 301701
RWRMN
WEATHER ROUNDUP FOR MINNESOTA
NATIONAL WEATHER SERVICE TWIN CITIES/CHANHASSEN MN
1200 PM CDT TUE JUN 30 2015


NOTE: "FAIR" INDICATES FEW OR NO CLOUDS BELOW 12,000 FEET WITH NO
SIGNIFICANT WEATHER AND/OR OBSTRUCTIONS TO VISIBILITY. N/A MEANS
CURRENT SKY AND/OR WEATHER CONDITIONS ARE NOT AVAILABLE.

MNZ060>063-068>070-301800-
   Twin Cities Metro

CITY           SKY/WX    TMP DP  RH WIND       PRES   REMARKS
TWIN CITIES    PTSUNNY   71  60  68 VRB7      29.94S
ST PAUL        CLOUDY    70  59  68 CALM      29.94S
CRYSTAL        MOSUNNY   72  60  66 E8        29.94R
LAKEVILLE      PTSUNNY   70  63  78 E8        29.94S
EDEN PRAIRIE   MOSUNNY   73  60  63 NE8       29.93R
SOUTH ST PAUL  PTSUNNY   69  59  69 E6        29.94S
LAKE ELMO        N/A     70  59  68 CALM      29.96S
$$
MNZ001>005-007-008-013>017-022>024-027-028-301800-
   Northwest Minnesota

CITY           SKY/WX    TMP DP  RH WIND       PRES   REMARKS
BEMIDJI        PTSUNNY   69  57  64 W3        29.97S
HALLOCK        CLOUDY    70  63  78 S5        29.95F
ROSEAU         MOSUNNY   70  57  64 E3        29.98S
WARROAD        MOSUNNY   66  57  72 E5        29.99S
THIEF RVR FALL PTSUNNY   70  59  68 CALM      29.97F
CROOKSTON      PTSUNNY   72  61  68 CALM      29.96F
FOSSTON        PTSUNNY   72  66  83 CALM      29.98R
DETROIT LAKES  PTSUNNY   72  54  53 CALM      29.98S
MOORHEAD       PTSUNNY   72  59  64 CALM      29.96S
PARK RAPIDS    PTSUNNY   73  56  54 N5        29.96S
MAHNOMEN       FAIR      70  58  66 CALM      29.97R
$$
MNZ006-009>011-018-025>026-301800-
   North Central Minnesota

CITY           SKY/WX    TMP DP  RH WIND       PRES   REMARKS
BAUDETTE       MOSUNNY   67  53  61 SE6       29.98S
FLAG ISLAND    MOSUNNY   64  50  59 SE6       29.99R
INTL FALLS     MOSUNNY   65  49  56 E3        29.99S
WASKISH        SUNNY     72  55  56 E5        29.98S
BIG FORK       SUNNY     66  52  59 CALM      29.98S
LONGVILLE      SUNNY     70  55  60 N5        29.97S
GRAND RAPIDS   MOSUNNY   64  54  68 E6        29.98S
CRANE LAKE     SUNNY     63  46  55 N5        30.00F
COOK           SUNNY     64  48  55 N6        29.99S
WALKER         FAIR      67  57  70 SE5       29.97F
$$
MNZ012-019>021-037-301800-
   Northeast Minnesota

CITY           SKY/WX    TMP DP  RH WIND       PRES   REMARKS
DULUTH         CLOUDY    59  46  62 SE8       29.99S
ELY            SUNNY     61  46  59 N6        29.99S
HIBBING        MOSUNNY   65  50  58 NE5       29.98F
EVELETH        MOSUNNY   63  50  63 NE6       30.00S
DULUTH HARBOR  PTSUNNY   59  50  72 E10       30.01R
TWO HARBORS    SUNNY     63  48  59 E10       29.98R
SILVER BAY     SUNNY     61  43  51 E8        29.98R
GRAND MARAIS     N/A     52  42  69 SE3       30.00S
G MARAIS ARPRT MOSUNNY   61  43  51 NE9       29.99S
$$
MNZ029>031-032-039>041-046>048-054>057-064-301800-
   West Central Minnesota

CITY           SKY/WX    TMP DP  RH WIND       PRES   REMARKS
FERGUS FALLS   CLOUDY    72  57  60 SE3       29.95S
WHEATON        CLOUDY    66  57  72 E9        29.96F
MORRIS         PTSUNNY   72  59  64 E7        29.95S
ALEXANDRIA     PTSUNNY   72  55  55 NE5       29.98S
ELBOW LAKE     FAIR      71  57  61 E5        29.96S
WADENA         MOSUNNY   72  55  56 NE3       29.96S
GLENWOOD       MOSUNNY   73  57  56 E5        29.97S
APPLETON       PTSUNNY   73  61  64 SE6       29.95S
BENSON         PTSUNNY   72  57  60 SE5       29.95S
ORTONVILLE     PTSUNNY   68  59  73 E6        29.95S
MADISON        PTSUNNY   70  61  73 SE7       29.95S
WILLMAR        FAIR      73  59  60 NE7       29.97R
$$
MNZ033>034-036-042>043-049>051-058-059-301800-
   Central Minnesota

CITY           SKY/WX    TMP DP  RH WIND       PRES   REMARKS
ST CLOUD       SUNNY     72  57  59 NE3       29.95S
SAUK CENTRE    FAIR      73  56  56 E5        29.96S
PAYNESVILLE    MOSUNNY   71  57  60 NW6       29.96S
AITKIN         MOSUNNY   72  57  60 E3        29.95S
PINE RIVER       N/A     72  55  56 CALM      29.99F
BRAINERD       MOSUNNY   72  54  53 VRB5      29.96F
STAPLES        MOSUNNY   72  55  56 N5        29.96S
LONG PRAIRIE   FAIR      70  57  64 NE3       29.96F
LITTLE FALLS   PTSUNNY   72  54  53 NE5       29.96S
LITCHFIELD     SUNNY     75  61  60 NE5       29.96R
BUFFALO        SUNNY     72  57  58 N5        29.96S
MAPLE LAKE     MOSUNNY   74  62  64 NE6       29.96R
$$
MNZ037-044-045-052-053-301800-
   East Central Minnesota

CITY           SKY/WX    TMP DP  RH WIND       PRES   REMARKS
PRINCETON      MOSUNNY   72  57  60 CALM      29.96S
MORA           MOSUNNY   68  55  64 CALM      29.97F
CAMBRIDGE      MOSUNNY   70  55  60 NW6       29.94S
MOOSE LAKE     PTSUNNY   63  59  88 NE3       29.96F
HINCKLEY       CLOUDY    70  59  68 NE8       29.96S
CLOQUET        CLOUDY    61  52  72 E3        29.98F
MCGREGOR       PTSUNNY   68  54  60 N5        29.97S
$$
MNZ071>073-080-081-089-090-097-098-301800-
   Southwest Minnesota

CITY           SKY/WX    TMP DP  RH WIND       PRES   REMARKS
MONTEVIDEO     PTSUNNY   73  63  68 SE6       29.96S
GRANITE FALLS  PTSUNNY   71  60  67 NE6       29.97S
CANBY          MOSUNNY   69  62  77 E6        29.97S
MARSHALL       MOSUNNY   70  61  73 E8        29.96
REDWOOD FALLS  MOSUNNY   74  60  61 N5        29.95R
OLIVIA         MOSUNNY   72  59  64 E6        29.95R
PIPESTONE      PTSUNNY   72  63  73 CALM      29.96R
WINDOM         MOSUNNY   70  61  73 CALM      29.96R
WORTHINGTON    PTSUNNY   72  63  73 E6        29.96S
JACKSON        MOSUNNY   72  63  73 NE6       29.96S
TRACY          MOSUNNY   70  63  78 E5        29.97R
SLAYTON        PTSUNNY   70  64  80 CALM      29.97R
$$
MNZ065>067-074>077-082>085-091>093-301800-
   South Central Minnesota

CITY           SKY/WX    TMP DP  RH WIND       PRES   REMARKS
MANKATO        MOSUNNY   72  61  68 NE8       29.94R
NEW ULM        SUNNY     72  57  60 NE9       29.94S
ST JAMES       SUNNY     73  63  68 N6        29.95S
FAIRMONT       MOSUNNY   72  59  64 N8        29.94R
GLENCOE        SUNNY     74  62  64 N6        29.94R
FARIBAULT      MOSUNNY   73  63  68 N5        29.94R
OWATONNA       MOSUNNY   73  61  64 NE9       29.93S
WASECA         MOSUNNY   72  59  64 NE12      29.94S
ALBERT LEA     MOSUNNY   73  63  68 N9        29.92S
$$
MNZ078>079-086>088-094>096-301800-
   Southeast Minnesota

CITY           SKY/WX    TMP DP  RH WIND       PRES   REMARKS
ROCHESTER      MOSUNNY   70  62  76 N10       29.94S
RED WING       CLOUDY    70  59  68 CALM      29.93S
STANTON        PTSUNNY   70  61  73 NE9       29.93S
DODGE CENTER   PTSUNNY   72  61  68 NE12      29.93S
WINONA         CLOUDY    68  61  77 CALM      29.93R
AUSTIN         MOSUNNY   73  63  68 N6        29.92S
PRESTON        PTSUNNY   67  61  80 N8        29.94R
$$
ABBREVIATIONS USED IN REMARKS
   TC - TEMPERATURES IN CELSIUS
  WCI - WIND CHILL INDEX
   HX - HEAT INDEX
  VSB - VISIBILITY
$$


USA.gov is the U.S. government's official web portal to all federal, state and local government web resources and services.